CW4957 Weather Reports


Display with metric or nautical units.
time (UTC)temp
F
wind
direction
speed
MPH
gust
MPH
rain 1hr
in
rain 24hr
in
rain mn
in
humidity
%
barometer
mb
20171121004411 39 204 1.0 5.0 0.00 0.00 0.00 68 1016.0
20171121003903 39 219 2.0 6.0 0.00 0.00 0.00 68 1016.0
20171121003412 39 198 3.0 6.0 0.00 0.00 0.00 67 1016.0
20171121002903 39 227 2.0 4.0 0.00 0.00 0.00 67 1016.0
20171121002414 39 238 1.0 5.0 0.00 0.00 0.00 66 1015.8
20171121001913 39 240 2.0 5.0 0.00 0.00 0.00 66 1015.8
20171121001416 39 199 2.0 4.0 0.00 0.00 0.00 65 1015.8
20171121000904 39 213 3.0 4.0 0.00 0.00 0.00 65 1015.7
20171121000408 39 215 2.0 5.0 0.00 0.00 0.00 65 1015.7
20171120235900 39 266 2.0 6.0 0.00 0.00 0.00 64 1015.7
20171120235414 39 258 1.0 6.0 0.00 0.00 0.00 64 1015.6
20171120234906 39 221 2.0 6.0 0.00 0.00 0.00 64 1015.6
20171120234415 39 207 3.0 8.0 0.00 0.00 0.00 63 1015.6
20171120233909 39 198 2.0 8.0 0.00 0.00 0.00 63 1015.5
20171120233401 39 219 3.0 6.0 0.00 0.00 0.00 63 1015.5
20171120232911 39 228 3.0 6.0 0.00 0.00 0.00 62 1015.5
20171120232403 39 211 2.0 5.0 0.00 0.00 0.00 62 1015.2
20171120231918 39 209 2.0 6.0 0.00 0.00 0.00 62 1015.2
20171120231408 39 206 3.0 7.0 0.00 0.00 0.00 61 1015.2
20171120230916 39 207 2.0 4.0 0.00 0.00 0.00 61 1014.9
20171120230356 39 210 1.0 3.0 0.00 0.00 0.00 61 1014.9
20171120225912 39 215 2.0 3.0 0.00 0.00 0.00 60 1014.9
20171120225401 39 215 1.0 3.0 0.00 0.00 0.00 60 1014.7
20171120224916 39 215 0.0 5.0 0.00 0.00 0.00 60 1014.7
20171120224408 39 215 1.0 5.0 0.00 0.00 0.00 60 1014.7
20171120223917 39 209 1.0 4.0 0.00 0.00 0.00 60 1014.2
20171120222901 39 217 0.0 2.0 0.00 0.00 0.00 60 1014.2
20171120222418 39 218 0.0 2.0 0.00 0.00 0.00 59 1014.1
20171120221911 38 217 1.0 5.0 0.00 0.00 0.00 59 1014.1
20171120221408 38 217 2.0 5.0 0.00 0.00 0.00 59 1014.1
20171120220901 38 211 1.0 3.0 0.00 0.00 0.00 60 1014.0
20171120220415 39 233 0.0 0.0 0.00 0.00 0.00 60 1014.0
20171120215904 39 233 0.0 0.0 0.00 0.00 0.00 59 1014.0
20171120215416 39 233 0.0 0.0 0.00 0.00 0.00 58 1013.7
20171120214909 39 233 0.0 1.0 0.00 0.00 0.00 57 1013.7
20171120214417 39 233 0.0 2.0 0.00 0.00 0.00 57 1013.7
20171120213906 39 233 1.0 2.0 0.00 0.00 0.00 57 1013.6
20171120213358 39 233 0.0 0.0 0.00 0.00 0.00 55 1013.6
20171120212912 39 233 0.0 0.0 0.00 0.00 0.00 56 1013.6
20171120212404 39 233 0.0 0.0 0.00 0.00 0.00 56 1013.4
20171120211917 39 233 0.0 1.0 0.00 0.00 0.00 55 1013.4
20171120211406 39 233 0.0 1.0 0.00 0.00 0.00 55 1013.4
20171120210919 39 233 0.0 1.0 0.00 0.00 0.00 55 1013.1
20171120210417 39 233 0.0 1.0 0.00 0.00 0.00 54 1013.1
20171120205910 39 233 0.0 2.0 0.00 0.00 0.00 54 1013.1
20171120205401 39 238 0.0 2.0 0.00 0.00 0.00 53 1013.0
20171120204913 40 238 0.0 4.0 0.00 0.00 0.00 53 1013.0
20171120204404 40 238 1.0 6.0 0.00 0.00 0.00 52 1013.0
20171120203916 40 212 3.0 6.0 0.00 0.00 0.00 51 1012.9
20171120203406 40 205 3.0 8.0 0.00 0.00 0.00 51 1012.9
20171120202917 40 198 3.0 8.0 0.00 0.00 0.00 51 1012.9
20171120202407 40 348 2.0 8.0 0.00 0.00 0.00 50 1012.5
20171120201859 41 200 3.0 12.0 0.00 0.00 0.00 50 1012.5
20171120201412 41 214 4.0 12.0 0.00 0.00 0.00 49 1012.5
20171120200904 41 261 4.0 10.0 0.00 0.00 0.00 48 1012.5
20171120200406 41 259 2.0 8.0 0.00 0.00 0.00 48 1012.5
20171120195912 41 218 2.0 8.0 0.00 0.00 0.00 48 1012.5
20171120195405 42 208 4.0 7.0 0.00 0.00 0.00 48 1012.3
20171120194914 41 223 2.0 5.0 0.00 0.00 0.00 48 1012.3
20171120194406 42 200 3.0 5.0 0.00 0.00 0.00 47 1012.3
20171120193914 41 204 2.0 6.0 0.00 0.00 0.00 49 1012.2
20171120193409 41 206 2.0 6.0 0.00 0.00 0.00 50 1012.2
20171120192859 40 350 2.0 8.0 0.00 0.00 0.00 50 1012.2
20171120192413 40 186 4.0 11.0 0.00 0.00 0.00 49 1012.1
20171120191904 40 213 3.0 12.0 0.00 0.00 0.00 49 1012.1
20171120191417 41 174 2.0 6.0 0.00 0.00 0.00 50 1012.1
20171120190906 41 323 0.0 2.0 0.00 0.00 0.00 51 1012.0
20171120190406 40 259 1.0 3.0 0.00 0.00 0.00 50 1012.0
20171120185859 39 258 1.0 3.0 0.00 0.00 0.00 51 1012.0
20171120185408 40 239 0.0 3.0 0.00 0.00 0.00 51 1012.2
20171120184859 40 238 1.0 4.0 0.00 0.00 0.00 51 1012.2
20171120184408 40 39 1.0 4.0 0.00 0.00 0.00 53 1012.2
20171120183902 39 215 2.0 7.0 0.00 0.00 0.00 52 1012.5
20171120183412 39 348 2.0 7.0 0.00 0.00 0.00 52 1012.5
20171120182905 39 338 1.0 4.0 0.00 0.00 0.00 52 1012.5
20171120182358 39 257 1.0 4.0 0.00 0.00 0.00 52 1012.1
20171120181914 40 266 1.0 5.0 0.00 0.00 0.00 53 1012.1
20171120181404 40 355 1.0 5.0 0.00 0.00 0.00 51 1012.1
20171120180858 40 238 1.0 5.0 0.00 0.00 0.00 52 1012.5
20171120180417 40 272 1.0 5.0 0.00 0.00 0.00 54 1012.5
20171120175908 40 209 2.0 5.0 0.00 0.00 0.00 52 1012.5
20171120175358 40 136 1.0 4.0 0.00 0.00 0.00 53 1012.5
20171120174912 39 29 2.0 5.0 0.00 0.00 0.00 53 1012.5
20171120174404 39 23 2.0 5.0 0.00 0.00 0.00 55 1012.5
20171120173911 38 324 1.0 5.0 0.00 0.00 0.00 54 1012.6
20171120173404 38 347 2.0 5.0 0.00 0.00 0.00 55 1012.6
20171120172914 38 176 2.0 5.0 0.00 0.00 0.00 56 1012.6
20171120172408 38 195 3.0 5.0 0.00 0.00 0.00 56 1012.6
20171120171859 38 238 2.0 5.0 0.00 0.00 0.00 56 1012.6
20171120171413 38 272 1.0 6.0 0.00 0.00 0.00 55 1012.6
20171120170902 38 180 2.0 9.0 0.00 0.00 0.00 55 1012.8
20171120170405 38 355 3.0 8.0 0.00 0.00 0.00 55 1012.8
20171120165859 38 250 1.0 5.0 0.00 0.00 0.00 57 1012.8
20171120165412 38 326 1.0 5.0 0.00 0.00 0.00 56 1012.7
20171120164900 38 339 1.0 7.0 0.00 0.00 0.00 56 1012.7
20171120164414 38 240 2.0 7.0 0.00 0.00 0.00 56 1012.7
20171120163904 38 331 2.0 7.0 0.00 0.00 0.00 57 1012.7
20171120163413 37 303 3.0 7.0 0.00 0.00 0.00 56 1012.7
20171120162903 37 209 1.0 6.0 0.00 0.00 0.00 57 1012.7
20171120162358 38 313 2.0 5.0 0.00 0.00 0.00 57 1012.8
20171120161910 37 312 3.0 5.0 0.00 0.00 0.00 56 1012.8
20171120161406 37 228 1.0 5.0 0.00 0.00 0.00 57 1012.8
20171120160857 37 292 2.0 7.0 0.00 0.00 0.00 56 1013.0
20171120160359 37 271 2.0 7.0 0.00 0.00 0.00 57 1013.0
20171120155912 37 269 2.0 8.0 0.00 0.00 0.00 57 1013.0
20171120155400 36 193 3.0 8.0 0.00 0.00 0.00 57 1013.1
20171120154912 36 58 4.0 7.0 0.00 0.00 0.00 56 1013.1
20171120154401 36 191 2.0 6.0 0.00 0.00 0.00 55 1013.1
20171120153913 36 259 1.0 8.0 0.00 0.00 0.00 56 1013.1
20171120153407 35 234 2.0 8.0 0.00 0.00 0.00 55 1013.1
20171120152900 35 217 2.0 4.0 0.00 0.00 0.00 56 1013.1
20171120152414 35 18 2.0 7.0 0.00 0.00 0.00 57 1013.1
20171120151909 35 186 4.0 7.0 0.00 0.00 0.00 55 1013.1
20171120151402 35 195 3.0 9.0 0.00 0.00 0.00 55 1013.1
20171120150908 35 213 1.0 9.0 0.00 0.00 0.00 55 1012.9
20171120150404 35 225 3.0 6.0 0.00 0.00 0.00 55 1012.9
20171120145858 35 221 2.0 6.0 0.00 0.01 0.00 55 1012.9
20171120145411 35 209 2.0 5.0 0.00 0.01 0.00 53 1012.8
20171120144901 35 288 2.0 7.0 0.00 0.01 0.00 55 1012.8
20171120144409 35 307 2.0 7.0 0.00 0.01 0.00 53 1012.8
20171120143859 35 235 2.0 7.0 0.00 0.01 0.00 54 1012.6
20171120143405 35 282 1.0 3.0 0.00 0.01 0.00 53 1012.6
20171120142858 34 181 1.0 3.0 0.00 0.01 0.00 54 1012.6
20171120142410 34 89 1.0 5.0 0.00 0.01 0.00 54 1012.5
20171120141902 34 62 2.0 5.0 0.00 0.01 0.00 55 1012.5
20171120141409 34 253 1.0 3.0 0.00 0.01 0.00 56 1012.5
20171120140904 34 288 1.0 3.0 0.00 0.01 0.00 57 1012.5
20171120140404 34 288 1.0 4.0 0.00 0.01 0.00 56 1012.5
20171120135915 34 288 2.0 5.0 0.00 0.01 0.00 56 1012.5
20171120135411 34 272 1.0 5.0 0.00 0.01 0.00 57 1012.4
20171120134900 33 211 2.0 4.0 0.00 0.01 0.00 57 1012.4
20171120134412 33 227 1.0 4.0 0.00 0.01 0.00 57 1012.4
20171120133905 33 238 2.0 5.0 0.00 0.01 0.00 57 1012.2
20171120133358 33 192 0.0 2.0 0.00 0.01 0.00 59 1012.2
20171120132908 33 233 1.0 3.0 0.00 0.01 0.00 59 1012.2
20171120132402 33 278 1.0 3.0 0.00 0.01 0.00 59 1012.0
20171120131915 32 311 1.0 4.0 0.00 0.01 0.00 59 1012.0
20171120131410 32 206 2.0 4.0 0.00 0.01 0.00 61 1012.0
20171120130901 32 28 1.0 3.0 0.00 0.01 0.00 62 1011.8
20171120130404 32 360 0.0 2.0 0.00 0.01 0.00 62 1011.8
20171120125910 32 360 1.0 2.0 0.00 0.03 0.00 62 1011.8
20171120125400 32 360 1.0 2.0 0.00 0.03 0.00 62 1011.6
20171120124910 32 360 0.0 1.0 0.00 0.03 0.00 61 1011.6
20171120124403 32 327 0.0 0.0 0.00 0.03 0.00 61 1011.6
20171120123914 32 327 0.0 0.0 0.00 0.03 0.00 61 1011.5
20171120123404 32 327 0.0 0.0 0.00 0.03 0.00 62 1011.5
20171120122915 32 327 0.0 0.0 0.00 0.03 0.00 61 1011.5
20171120122406 32 327 0.0 0.0 0.00 0.03 0.00 61 1011.3
20171120121859 32 327 0.0 1.0 0.00 0.03 0.00 61 1011.3
20171120121412 32 327 0.0 1.0 0.00 0.03 0.00 60 1011.3
20171120120905 32 327 0.0 2.0 0.00 0.03 0.00 61 1011.0
20171120120404 32 328 1.0 3.0 0.00 0.03 0.00 59 1011.0
20171120115857 32 18 0.0 4.0 0.00 0.05 0.00 60 1011.0
20171120115408 32 21 1.0 4.0 0.00 0.05 0.00 60 1010.6
20171120114900 32 261 1.0 3.0 0.00 0.05 0.00 60 1010.6
20171120114413 32 285 1.0 3.0 0.00 0.05 0.00 60 1010.6
20171120113903 32 280 1.0 3.0 0.00 0.05 0.00 60 1010.1
20171120113357 32 22 2.0 3.0 0.00 0.05 0.00 59 1010.1
20171120112906 32 205 1.0 7.0 0.00 0.05 0.00 59 1010.1
20171120112401 32 355 3.0 7.0 0.00 0.05 0.00 59 1009.9
20171120111858 32 183 1.0 3.0 0.00 0.05 0.00 60 1009.9
20171120111409 32 259 0.0 2.0 0.00 0.05 0.00 60 1009.9
20171120110901 32 259 0.0 2.0 0.00 0.05 0.00 59 1009.6
20171120110359 33 315 0.0 2.0 0.00 0.05 0.00 59 1009.6
20171120105908 33 315 0.0 7.0 0.00 0.05 0.00 58 1009.6
20171120105416 33 313 2.0 7.0 0.00 0.05 0.00 58 1009.5
20171120104909 33 302 1.0 6.0 0.00 0.05 0.00 57 1009.5
20171120104402 33 178 2.0 5.0 0.00 0.05 0.00 58 1009.5
20171120103911 33 355 2.0 8.0 0.00 0.05 0.00 58 1009.2
20171120103408 33 345 2.0 8.0 0.00 0.05 0.00 58 1009.2
20171120102859 33 355 3.0 6.0 0.00 0.05 0.00 59 1009.2
20171120102416 33 194 2.0 4.0 0.00 0.05 0.00 61 1008.9
20171120101908 33 151 1.0 5.0 0.00 0.05 0.00 60 1008.9
20171120101403 33 336 3.0 5.0 0.00 0.05 0.00 61 1008.9
20171120100854 33 184 2.0 10.0 0.00 0.05 0.00 61 1008.6
20171120100404 33 308 2.0 10.0 0.00 0.05 0.00 63 1008.6
20171120095912 33 212 1.0 8.0 0.00 0.08 0.00 67 1008.6
20171120095409 33 243 3.0 8.0 0.00 0.08 0.00 70 1008.3
20171120094901 33 317 2.0 4.0 0.00 0.08 0.00 73 1008.3
20171120094413 33 335 2.0 5.0 0.00 0.08 0.00 74 1008.3
20171120093904 33 194 2.0 8.0 0.00 0.08 0.00 74 1008.3
20171120093414 33 227 2.0 9.0 0.00 0.08 0.00 74 1008.3
20171120092908 34 250 2.0 9.0 0.00 0.08 0.00 75 1008.3
20171120092400 34 292 3.0 7.0 0.00 0.08 0.00 75 1007.9
20171120091908 34 283 3.0 7.0 0.00 0.08 0.00 74 1007.9
20171120091400 34 291 3.0 7.0 0.00 0.08 0.00 71 1007.9
20171120090910 34 315 1.0 5.0 0.00 0.08 0.00 69 1007.3
20171120090411 35 201 2.0 5.0 0.00 0.08 0.00 69 1007.3
20171120085900 35 202 1.0 6.0 0.00 0.09 0.00 69 1007.3
20171120085414 35 278 2.0 6.0 0.00 0.09 0.00 69 1007.0
20171120084907 35 320 1.0 3.0 0.00 0.09 0.00 70 1007.0
20171120084401 35 295 1.0 3.0 0.00 0.09 0.00 70 1007.0
20171120083912 35 338 1.0 4.0 0.00 0.09 0.00 69 1006.8
20171120083406 35 53 1.0 4.0 0.00 0.09 0.00 69 1006.8
20171120082858 35 192 1.0 7.0 0.00 0.09 0.00 69 1006.8
20171120082410 35 296 3.0 7.0 0.00 0.09 0.00 69 1006.8
20171120081858 35 224 2.0 7.0 0.00 0.09 0.00 69 1006.8
20171120081406 35 259 3.0 7.0 0.00 0.09 0.00 69 1006.8
20171120080900 34 199 2.0 4.0 0.00 0.09 0.00 70 1006.3
20171120080413 34 302 1.0 3.0 0.00 0.09 0.00 69 1006.3
20171120075906 34 265 1.0 5.0 0.00 0.13 0.00 70 1006.3
20171120075416 34 279 1.0 5.0 0.00 0.13 0.00 71 1006.7
20171120074906 34 281 1.0 4.0 0.00 0.13 0.00 71 1006.7
20171120074355 34 219 2.0 5.0 0.00 0.13 0.00 71 1006.7
20171120073908 34 207 1.0 5.0 0.00 0.13 0.00 72 1006.3
20171120073400 34 203 2.0 4.0 0.00 0.13 0.00 72 1006.3
20171120072910 34 355 2.0 9.0 0.00 0.13 0.00 73 1006.3
20171120072406 35 223 3.0 9.0 0.00 0.13 0.00 74 1006.3
20171120071855 35 305 2.0 6.0 0.00 0.13 0.00 77 1006.3
20171120071408 35 259 2.0 6.0 0.00 0.13 0.00 79 1006.3
20171120070900 36 203 0.0 3.0 0.00 0.13 0.00 78 1006.2
20171120070358 36 203 0.0 5.0 0.00 0.13 0.00 78 1006.2
20171120065910 36 202 2.0 5.0 0.00 0.14 0.00 75 1006.2
20171120065404 36 259 1.0 3.0 0.00 0.14 0.00 73 1005.8
20171120064914 36 195 1.0 5.0 0.00 0.14 0.00 72 1005.8
20171120064404 36 233 2.0 5.0 0.00 0.14 0.00 70 1005.8
20171120063914 36 220 2.0 4.0 0.00 0.14 0.00 70 1005.5
20171120063406 36 213 2.0 5.0 0.00 0.14 0.00 69 1005.5
20171120062900 36 207 1.0 5.0 0.00 0.14 0.00 68 1005.5
20171120062415 36 240 0.0 5.0 0.00 0.14 0.00 68 1005.2
20171120061908 36 216 2.0 5.0 0.00 0.14 0.00 68 1005.2
20171120061359 36 285 1.0 3.0 0.00 0.14 0.00 67 1005.2
20171120060911 36 255 2.0 5.0 0.00 0.14 0.00 67 1005.1
20171120060411 36 184 2.0 5.0 0.00 0.14 0.00 67 1005.1
20171120055859 36 206 1.0 3.0 0.00 0.15 0.00 67 1005.1
20171120055408 36 264 1.0 3.0 0.00 0.15 0.00 66 1005.0
20171120054903 36 21 2.0 5.0 0.00 0.15 0.00 67 1005.0
20171120054356 36 221 1.0 6.0 0.00 0.15 0.00 67 1005.0
20171120053908 36 236 1.0 4.0 0.00 0.15 0.00 67 1004.9
20171120053400 36 252 1.0 4.0 0.00 0.15 0.00 67 1004.9
20171120052914 36 210 1.0 4.0 0.00 0.15 0.00 67 1004.9
20171120052406 36 209 1.0 4.0 0.00 0.15 0.00 67 1004.6
20171120051915 36 127 1.0 3.0 0.00 0.15 0.00 67 1004.6
20171120051405 36 246 1.0 4.0 0.00 0.15 0.00 67 1004.6
20171120050857 36 246 1.0 6.0 0.00 0.15 0.00 67 1004.5
20171120050400 36 321 2.0 6.0 0.00 0.15 0.00 66 1004.5
20171120045910 37 205 0.0 5.0 0.00 0.15 0.15 66 1004.5
20171120045403 37 205 1.0 5.0 0.00 0.15 0.15 66 1004.2
20171120044912 37 221 1.0 3.0 0.00 0.15 0.15 66 1004.2
20171120044408 37 254 1.0 2.0 0.00 0.15 0.15 67 1004.2
20171120043859 37 173 0.0 2.0 0.00 0.15 0.15 68 1004.1
20171120043409 37 269 1.0 4.0 0.00 0.15 0.15 67 1004.1
20171120042902 37 269 1.0 4.0 0.00 0.15 0.15 68 1004.1
20171120042414 37 252 1.0 5.0 0.00 0.15 0.15 68 1003.9
20171120041906 36 261 1.0 4.0 0.00 0.15 0.15 68 1003.9
20171120041358 36 315 1.0 3.0 0.00 0.15 0.15 68 1003.9
20171120040910 36 284 0.0 3.0 0.00 0.15 0.15 68 1003.7
20171120040406 36 249 0.0 2.0 0.00 0.15 0.15 68 1003.7
20171120035900 36 200 0.0 3.0 0.00 0.17 0.15 68 1003.7
20171120035412 36 198 0.0 3.0 0.00 0.17 0.15 68 1003.6
20171120034904 36 260 0.0 2.0 0.00 0.17 0.15 68 1003.6
20171120034356 36 260 0.0 3.0 0.00 0.17 0.15 67 1003.6
20171120033907 36 260 1.0 3.0 0.00 0.17 0.15 66 1003.6
20171120033411 36 217 0.0 3.0 0.00 0.17 0.15 66 1003.6
20171120032902 36 227 1.0 2.0 0.00 0.17 0.15 66 1003.6
20171120032413 37 227 0.0 3.0 0.00 0.17 0.15 65 1003.4
20171120031904 37 227 1.0 3.0 0.00 0.17 0.15 65 1003.4
20171120031356 37 232 0.0 2.0 0.00 0.17 0.15 64 1003.4
20171120030854 37 277 1.0 4.0 0.00 0.17 0.15 64 1003.3
20171120030413 37 308 2.0 4.0 0.00 0.17 0.15 64 1003.3
20171120025904 37 313 1.0 3.0 0.00 0.17 0.15 64 1003.3
20171120025357 37 334 1.0 5.0 0.00 0.17 0.15 63 1003.2
20171120024907 37 207 1.0 5.0 0.00 0.17 0.15 63 1003.2
20171120024408 37 331 1.0 3.0 0.00 0.17 0.15 62 1003.2
20171120023900 37 342 1.0 3.0 0.00 0.17 0.15 62 1003.2
20171120023415 37 348 2.0 4.0 0.00 0.17 0.15 62 1003.2
20171120022906 38 300 1.0 5.0 0.00 0.17 0.15 62 1003.2
20171120022357 38 202 2.0 7.0 0.00 0.17 0.15 62 1003.0
20171120021910 38 203 1.0 7.0 0.00 0.17 0.15 62 1003.0
20171120021403 38 35 2.0 4.0 0.00 0.17 0.15 62 1003.0
20171120020913 38 332 2.0 4.0 0.00 0.17 0.15 61 1003.0
20171120020414 38 31 1.0 5.0 0.00 0.17 0.15 62 1003.0
20171120015904 38 180 2.0 5.0 0.00 0.19 0.15 62 1003.0
20171120015410 38 325 1.0 5.0 0.00 0.19 0.15 62 1002.7
20171120014907 38 38 2.0 3.0 0.00 0.19 0.15 63 1002.7
20171120014356 38 327 0.0 3.0 0.00 0.19 0.15 62 1002.7
20171120013907 38 331 1.0 3.0 0.00 0.19 0.15 62 1002.6
20171120013359 39 76 1.0 5.0 0.00 0.19 0.15 61 1002.6
20171120012909 39 294 2.0 5.0 0.00 0.19 0.15 61 1002.6
20171120012359 39 251 2.0 7.0 0.00 0.19 0.15 61 1002.1
20171120011910 39 286 2.0 6.0 0.00 0.19 0.15 60 1002.1
20171120011401 39 311 3.0 6.0 0.00 0.19 0.15 60 1002.1
20171120010911 39 355 3.0 6.0 0.00 0.19 0.15 60 1002.3
20171120010409 39 33 3.0 6.0 0.00 0.19 0.15 60 1002.3
20171120005903 39 32 2.0 5.0 0.00 0.25 0.15 60 1002.3
20171120005355 39 265 1.0 3.0 0.00 0.25 0.15 61 1001.9
20171120004908 39 258 1.0 4.0 0.00 0.25 0.15 61 1001.9